NOZ85W LPMA-ENGM

Flight info

Callsign NOZ85W
Flight time N/A
Altitude 32000
Route DEGUN DCT ROLAR DCT VERAM/N0445F340 DCT ASMAR DCT DEMOS DCT SOSOV/N0442F350 DCT AMPOP DCT UNFIT DCT INFEC DCT KISWO DCT AVTIC DCT ANJAK/N0442F360 N38 NOKIN UP17 POL UP18 LEHOC/N0439F350 DCT ALOTI DCT UPLEV DCT OSKOM DCT RIPAM
Aircraft B738/M-SDE2E3FGHIRWXY/LB1

Departure

Time N/A
Airport Cristiano Ronaldo International Airport (LPMA)

Arrival

Time 2026-05-06 12:29
Airport Oslo-Gardermoen International Airport (ENGM)
Time Latitude Longitude Altitude Speed Heading
2026-05-06 12:10 59.89493 9.21874 19131 ft 381 kts 54°
2026-05-06 12:10 59.90912 9.26331 18790 ft 379 kts 54°
2026-05-06 12:10 59.92320 9.30764 18437 ft 376 kts 54°
2026-05-06 12:11 59.93715 9.35166 18081 ft 373 kts 54°
2026-05-06 12:11 59.95081 9.39486 17723 ft 371 kts 55°
2026-05-06 12:11 59.96455 9.43837 17361 ft 368 kts 54°
2026-05-06 12:11 59.97821 9.48166 17033 ft 365 kts 55°
2026-05-06 12:12 59.99164 9.52431 16703 ft 362 kts 55°
2026-05-06 12:12 60.00498 9.56674 16383 ft 359 kts 55°
2026-05-06 12:12 60.01377 9.59473 16171 ft 358 kts 55°
2026-05-06 12:12 60.03125 9.65058 15712 ft 354 kts 55°
2026-05-06 12:13 60.04424 9.69224 15420 ft 350 kts 55°
2026-05-06 12:13 60.05711 9.73349 15119 ft 348 kts 55°
2026-05-06 12:13 60.06559 9.76068 14900 ft 347 kts 55°
2026-05-06 12:13 60.07836 9.80168 14576 ft 345 kts 55°
2026-05-06 12:14 60.09508 9.85555 14210 ft 341 kts 55°
2026-05-06 12:14 60.10355 9.88288 14006 ft 340 kts 55°
2026-05-06 12:14 60.11585 9.92263 13681 ft 338 kts 55°
2026-05-06 12:14 60.12819 9.96257 13336 ft 336 kts 55°
2026-05-06 12:15 60.14044 10.00229 13024 ft 332 kts 56°
2026-05-06 12:15 60.15249 10.04142 12725 ft 328 kts 56°
2026-05-06 12:15 60.16440 10.08021 12430 ft 324 kts 56°
2026-05-06 12:15 60.17615 10.11852 12140 ft 320 kts 56°
2026-05-06 12:16 60.18777 10.15645 11852 ft 317 kts 57°
2026-05-06 12:16 60.19929 10.19412 11572 ft 314 kts 57°
2026-05-06 12:16 60.21056 10.23102 11299 ft 310 kts 57°
2026-05-06 12:16 60.22181 10.26793 11011 ft 307 kts 57°
2026-05-06 12:17 60.23292 10.30446 10731 ft 304 kts 57°
2026-05-06 12:17 60.24358 10.33954 10488 ft 301 kts 57°
2026-05-06 12:17 60.25445 10.37536 10204 ft 298 kts 58°
2026-05-06 12:17 60.26500 10.41019 10044 ft 290 kts 58°
2026-05-06 12:18 60.27538 10.44452 9917 ft 283 kts 58°
2026-05-06 12:18 60.28544 10.47783 9647 ft 281 kts 58°
2026-05-06 12:18 60.29553 10.51129 9393 ft 278 kts 58°
2026-05-06 12:18 60.30552 10.54446 9150 ft 275 kts 58°
2026-05-06 12:19 60.31529 10.57695 8899 ft 273 kts 58°
2026-05-06 12:19 60.32511 10.60965 8656 ft 273 kts 57°
2026-05-06 12:19 60.33501 10.64265 8418 ft 274 kts 58°
2026-05-06 12:19 60.34489 10.67566 8161 ft 274 kts 57°
2026-05-06 12:20 60.35474 10.70858 7908 ft 273 kts 57°
2026-05-06 12:20 60.36456 10.74149 7678 ft 273 kts 58°
2026-05-06 12:20 60.37435 10.77432 7412 ft 273 kts 58°
2026-05-06 12:20 60.38402 10.80682 7175 ft 272 kts 58°
2026-05-06 12:21 60.39376 10.83956 6960 ft 271 kts 58°
2026-05-06 12:21 60.40329 10.87167 6706 ft 271 kts 58°
2026-05-06 12:21 60.41298 10.90434 6426 ft 270 kts 58°
2026-05-06 12:21 60.42250 10.93647 6156 ft 268 kts 58°
2026-05-06 12:22 60.43214 10.96906 5868 ft 267 kts 58°
2026-05-06 12:22 60.44118 10.99971 5764 ft 260 kts 58°
2026-05-06 12:22 60.45035 11.03081 5616 ft 252 kts 58°
2026-05-06 12:22 60.45715 11.06251 5512 ft 240 kts 83°
2026-05-06 12:23 60.45521 11.09520 5336 ft 235 kts 113°
2026-05-06 12:23 60.44705 11.12253 5067 ft 233 kts 135°
2026-05-06 12:23 60.43589 11.14456 4903 ft 223 kts 139°
2026-05-06 12:23 60.42489 11.16585 4727 ft 212 kts 138°
2026-05-06 12:24 60.41448 11.18589 4536 ft 201 kts 142°
2026-05-06 12:24 60.40237 11.19679 4409 ft 189 kts 184°
2026-05-06 12:24 60.38967 11.19147 4212 ft 189 kts 199°
2026-05-06 12:24 60.37696 11.18442 3945 ft 188 kts 198°
2026-05-06 12:25 60.36444 11.17732 3691 ft 187 kts 198°
2026-05-06 12:25 60.35237 11.17042 3453 ft 175 kts 199°
2026-05-06 12:25 60.34115 11.16387 3224 ft 166 kts 200°
2026-05-06 12:25 60.33086 11.15793 3061 ft 151 kts 199°
2026-05-06 12:26 60.32103 11.15224 2832 ft 145 kts 201°
2026-05-06 12:26 60.31146 11.14671 2668 ft 143 kts 200°
2026-05-06 12:26 60.30183 11.14114 2447 ft 142 kts 201°
2026-05-06 12:26 60.29237 11.13569 2291 ft 141 kts 201°
2026-05-06 12:27 60.28308 11.13030 2076 ft 143 kts 199°
2026-05-06 12:27 60.27362 11.12485 1906 ft 141 kts 199°
2026-05-06 12:27 60.26412 11.11936 1714 ft 142 kts 198°
2026-05-06 12:27 60.25482 11.11399 1494 ft 143 kts 197°
2026-05-06 12:28 60.24513 11.10910 1309 ft 143 kts 197°
2026-05-06 12:28 60.23558 11.10315 1122 ft 144 kts 197°
2026-05-06 12:28 60.22596 11.09739 927 ft 145 kts 197°
2026-05-06 12:28 60.21638 11.09183 753 ft 141 kts 196°
2026-05-06 12:29 60.20746 11.08674 678 ft 118 kts 195°
2026-05-06 12:29 60.20182 11.08348 675 ft 57 kts 195°
2026-05-06 12:29 60.19943 11.08323 673 ft 15 kts 157°
2026-05-06 12:29 60.19886 11.08482 675 ft 14 kts 112°
2026-05-06 12:30 60.19855 11.08660 677 ft 13 kts 102°
2026-05-06 12:30 60.19835 11.08835 674 ft 13 kts 104°
2026-05-06 12:30 60.19813 11.09005 680 ft 13 kts 105°
2026-05-06 12:30 60.19790 11.09174 680 ft 12 kts 105°
2026-05-06 12:31 60.19768 11.09332 682 ft 12 kts 106°
2026-05-06 12:31 60.19745 11.09492 682 ft 12 kts 107°
2026-05-06 12:31 60.19721 11.09647 680 ft 11 kts 109°
2026-05-06 12:31 60.19697 11.09794 684 ft 11 kts 105°
2026-05-06 12:32 60.19675 11.09941 680 ft 10 kts 106°
2026-05-06 12:32 60.19671 11.09972 684 ft 0 kts 106°